ED1ZAI-13 Weather Reports


time (UTC)temp
F
wind
direction
speed
knots
gust
knots
rain 1hr
in
rain 24hr
in
rain mn
in
humidity
%
barometer
mb
20260506091124 59 306 0.0 1.7 0.00 0.00 0.00 41 1011.4
20260506090124 56 261 0.0 2.6 0.00 0.00 0.00 43 1011.5
20260506085124 58 359 0.0 0.9 0.00 0.00 0.00 42 1011.4
20260506084123 58 359 0.0 0.9 0.00 0.00 0.00 38 1011.3
20260506082901 56 237 0.0 1.7 0.00 0.00 0.00 41 1011.4
20260506081901 55 280 0.0 0.9 0.00 0.00 0.00 49 1011.4
20260506080900 55 288 0.0 0.9 0.00 0.00 0.00 47 1011.4
20260506072901 49 292 0.0 0.0 0.00 0.00 0.00 66 1011.6
20260506071901 45 290 0.0 0.0 0.00 0.00 0.00 71 1011.7
20260506070901 43 290 0.0 0.0 0.00 0.00 0.00 73 1011.7
20260506061901 41 292 0.0 0.0 0.00 0.00 0.00 75 1011.5
20260506060900 41 292 0.0 0.0 0.00 0.00 0.00 75 1011.5
20260506050901 40 292 0.0 0.0 0.00 0.00 0.00 77 1011.2
20260506044859 39 292 0.0 0.0 0.00 0.00 0.00 78 1011.2
20260506043901 39 290 0.0 0.0 0.00 0.00 0.00 77 1011.2
20260506042900 39 292 0.0 0.0 0.00 0.00 0.00 77 1011.2
20260506042134 39 292 0.0 0.0 0.00 0.00 0.00 77 1011.2
20260506041134 39 289 0.0 0.0 0.00 0.00 0.00 77 1011.2
20260506040134 39 290 0.0 0.0 0.00 0.00 0.00 76 1011.2
20260506035133 40 289 0.0 0.0 0.00 0.00 0.00 74 1011.2
20260506034133 41 289 0.0 0.0 0.00 0.00 0.00 74 1011.2
20260506033135 41 290 0.0 0.0 0.00 0.00 0.00 76 1011.3
20260506032135 41 290 0.0 0.0 0.00 0.00 0.00 77 1011.3
20260506031134 41 288 0.0 0.0 0.00 0.00 0.00 78 1011.3
20260506030134 39 290 0.0 0.0 0.00 0.00 0.00 78 1011.2
20260506025134 40 289 0.0 0.0 0.00 0.00 0.00 78 1011.2
20260506024133 40 288 0.0 0.0 0.00 0.00 0.00 77 1011.1
20260506023133 40 289 0.0 0.0 0.00 0.00 0.00 76 1011.2
20260506022135 41 290 0.0 0.0 0.00 0.00 0.00 74 1011.2
20260506021134 42 290 0.0 0.0 0.00 0.00 0.00 74 1011.2
20260506020134 42 290 0.0 0.0 0.00 0.00 0.00 75 1011.2
20260506015132 42 290 0.0 0.0 0.00 0.00 0.00 75 1011.2
20260506014132 41 288 0.0 0.0 0.00 0.00 0.00 78 1011.3
20260506013133 42 288 0.0 0.0 0.00 0.00 0.00 74 1011.1
20260506012133 43 288 0.0 0.0 0.00 0.00 0.00 74 1011.1
20260506011133 42 290 0.0 0.0 0.00 0.00 0.00 76 1011.1
20260506010131 42 290 0.0 0.0 0.00 0.00 0.00 76 1011.2
20260506005133 42 289 0.0 0.0 0.00 0.00 0.00 75 1011.2
20260506004133 41 290 0.0 0.0 0.00 0.00 0.00 76 1011.4
20260506003133 41 290 0.0 0.0 0.00 0.00 0.00 77 1011.5
20260506002132 41 359 0.0 0.0 0.00 0.00 0.00 74 1011.4
20260506001132 45 359 0.0 0.0 0.00 0.00 0.00 68 1011.3
20260506000132 45 359 0.0 0.0 0.00 0.00 0.00 68 1011.4
20260505235131 45 359 0.0 0.0 0.00 0.00 0.00 69 1011.4
20260505234133 44 359 0.0 0.0 0.00 0.00 0.00 69 1011.4
20260505233133 45 359 0.0 0.0 0.00 0.00 0.00 68 1011.4
20260505232133 45 359 0.0 0.0 0.00 0.00 0.00 67 1011.5
20260505231133 46 359 0.0 0.0 0.00 0.00 0.00 66 1011.5
20260505230132 46 359 0.0 0.0 0.00 0.00 0.00 66 1011.6
20260505225132 45 359 0.0 0.0 0.00 0.00 0.00 67 1011.6
20260505224132 46 359 0.0 0.0 0.00 0.00 0.00 66 1011.5
20260505223133 46 359 0.0 0.0 0.00 0.00 0.00 67 1011.6
20260505222133 46 7 0.0 0.0 0.00 0.02 0.00 66 1011.7
20260505221133 45 6 0.0 0.9 0.00 0.02 0.00 66 1011.8
20260505220133 47 304 0.0 0.0 0.00 0.04 0.02 64 1011.7
20260505210133 46 325 0.0 1.7 0.00 0.18 0.02 65 1011.4
20260505205133 46 325 0.0 1.7 0.00 0.18 0.02 65 1011.4
20260505204132 46 320 0.0 2.6 0.00 0.18 0.02 65 1011.4
20260505203132 45 292 0.9 2.6 0.00 0.18 0.02 66 1011.3
20260505202133 45 279 1.7 4.3 0.00 0.18 0.02 65 1011.2
20260505201133 45 296 1.7 5.2 0.00 0.18 0.02 63 1011.1
20260505200132 47 318 1.7 6.1 0.00 0.18 0.02 62 1010.9
20260505195132 47 324 0.9 4.3 0.00 0.18 0.02 60 1010.9
20260505194132 48 286 0.9 3.5 0.00 0.18 0.02 60 1010.7
20260505193131 50 359 0.9 3.5 0.00 0.18 0.02 56 1010.5
20260505192133 51 309 0.0 2.6 0.00 0.18 0.02 54 1010.4
20260505191132 51 253 0.0 2.6 0.00 0.18 0.02 53 1010.3
20260505190132 52 318 0.0 1.7 0.00 0.18 0.02 52 1010.3
20260505185133 52 285 0.9 3.5 0.00 0.18 0.02 51 1010.2
20260505184133 52 230 0.0 2.6 0.00 0.18 0.02 50 1010.1
20260505183133 53 346 0.9 4.3 0.00 0.18 0.02 47 1010.0
20260505182132 55 254 1.7 5.2 0.00 0.18 0.02 42 1009.9
20260505181132 55 295 0.9 3.5 0.00 0.18 0.02 39 1009.7
20260505180132 56 268 0.9 6.1 0.00 0.18 0.02 41 1009.6
20260505175134 56 244 0.9 4.3 0.00 0.18 0.02 40 1009.6
20260505174133 58 271 1.7 4.3 0.00 0.18 0.02 37 1009.6
20260505173133 57 281 1.7 4.3 0.00 0.18 0.02 36 1009.6
20260505172133 60 84 0.9 3.5 0.00 0.18 0.02 36 1009.7
20260505171132 60 301 0.9 3.5 0.00 0.18 0.02 39 1009.7
20260505170132 57 275 0.9 3.5 0.00 0.18 0.02 39 1009.5
20260505165132 60 289 1.7 4.3 0.00 0.18 0.02 38 1009.6
20260505164132 59 345 1.7 6.1 0.00 0.18 0.02 38 1009.6
20260505163132 61 342 0.9 4.3 0.00 0.18 0.02 35 1009.7
20260505162133 62 312 1.7 4.3 0.00 0.18 0.02 34 1009.6
20260505161133 55 263 1.7 5.2 0.00 0.18 0.02 43 1009.5
20260505160132 60 282 1.7 3.5 0.00 0.18 0.02 37 1009.4
20260505153133 58 359 0.9 4.3 0.00 0.18 0.02 37 1009.6
20260505152133 60 318 1.7 4.3 0.00 0.18 0.02 35 1009.6
20260505151132 62 337 0.9 3.5 0.00 0.18 0.02 34 1009.6
20260505150133 59 359 0.9 3.5 0.00 0.18 0.02 39 1009.7
20260505140132 56 230 4.3 7.8 0.00 0.18 0.02 38 1009.7
20260505124908 54 266 4.3 7.8 0.00 0.18 0.02 46 1010.0
20260505123907 55 293 3.5 5.2 0.00 0.20 0.02 45 1010.0
20260505122907 56 280 3.5 6.1 0.00 0.22 0.02 41 1010.0
20260505121907 54 293 3.5 7.0 0.00 0.22 0.02 44 1010.1
20260505120909 54 226 3.5 7.0 0.00 0.30 0.02 45 1010.1
20260505115907 55 239 3.5 7.0 0.00 0.31 0.02 51 1010.1
20260505114907 55 260 3.5 7.0 0.00 0.31 0.02 47 1010.3
20260505113906 52 298 4.3 7.8 0.00 0.31 0.02 44 1010.5
20260505112906 53 305 3.5 7.8 0.00 0.31 0.02 50 1010.6
20260505111906 53 89 3.5 6.1 0.00 0.31 0.02 50 1010.8
20260505110907 51 215 4.3 7.0 0.00 0.31 0.02 48 1010.8
20260505101907 50 261 4.3 7.0 0.00 0.31 0.02 55 1011.0
20260505100907 49 262 4.3 7.0 0.00 0.31 0.02 57 1011.1
20260505095906 52 258 3.5 7.0 0.00 0.31 0.02 57 1011.1
20260505094906 49 274 2.6 6.1 0.00 0.31 0.02 58 1011.0
20260505093644 49 263 2.6 7.0 0.00 0.33 0.02 59 1011.2
20260505092643 48 226 3.5 7.0 0.00 0.33 0.02 65 1011.2